Theta_e
308 308 308 310 311 311 310 310 310 310 310 310 309 309 310 311 312 314 317 314 311 312 312 310 311 311 317 331 335 326 326 330 346 350 354 352 358 359 361 350 348 349 345 344 345 343 344
307 308 310 311 311 311 311 311 311 310 310 310 310 310 310 310 311 313 317 316 311 311 310 311 311 311 324 333 334 327 330 333 346 350 345 348 345 345 351 346 347 345 345 346 345 346 345
307 309 311 311 311 311 311 311 311 311 311 310 310 310 310 310 311 312 317 315 312 311 311 311 311 318 329 333 332 333 337 343 346 343 344 344 340 348 347 353 347 346 346 346 346 347 347
308 310 311 311 311 312 312 312 311 311 311 311 310 310 310 310 311 313 316 313 312 312 312 311 311 325 334 330 332 333 336 343 344 339 341 345 341 342 345 351 353 354 352 359 349 347 349
310 310 310 310 311 312 312 312 312 311 311 311 311 311 310 310 311 315 316 312 312 312 312 311 319 326 332 329 330 330 337 341 340 341 341 344 339 344 352 354 357 353 360 359 356 347 348
310 310 310 310 310 311 312 312 312 312 311 310 311 311 311 310 311 318 318 314 316 311 313 323 326 330 327 330 330 330 334 339 340 344 346 347 341 352 354 355 363 353 351 352 355 350 347
310 310 310 310 310 310 312 312 313 313 312 311 310 310 311 310 311 319 319 324 328 327 326 324 326 328 327 330 331 329 332 338 340 346 350 345 341 349 351 350 350 347 345 352 354 353 353
310 310 310 310 309 310 312 312 313 313 313 312 311 310 311 310 310 318 318 334 331 332 331 324 325 325 328 329 330 330 330 339 345 349 346 347 342 343 348 350 347 342 343 352 350 348 351
310 310 310 310 310 310 312 312 313 313 313 312 311 311 311 310 311 317 323 329 329 329 332 329 326 326 328 328 328 330 330 336 343 347 345 348 344 340 338 341 341 340 348 351 352 348 349
310 310 310 310 310 310 312 312 313 313 313 312 312 311 311 310 318 326 327 329 329 329 334 333 329 327 327 327 327 330 330 331 334 335 339 341 340 338 338 336 337 340 342 341 341 345 352
310 310 310 310 310 310 312 312 313 313 313 313 312 312 311 310 318 329 332 330 329 329 342 332 328 328 329 328 330 328 330 329 331 333 334 336 335 335 334 337 337 337 337 339 341 342 341
310 310 310 310 310 310 311 312 313 313 313 313 312 312 311 313 314 322 328 329 329 333 340 330 328 328 328 328 330 329 328 329 329 329 330 330 332 331 331 334 334 335 335 335 338 339 339
309 310 310 310 310 310 311 312 313 313 313 313 313 314 311 321 328 325 326 330 334 336 336 333 329 328 329 329 330 329 329 329 328 327 328 328 328 330 328 330 331 333 334 337 340 341 341
308 310 310 310 310 310 310 312 313 313 313 312 314 314 318 312 323 326 328 333 339 339 337 333 331 329 329 331 330 329 330 329 328 328 328 329 329 328 328 327 330 333 333 335 343 339 338
307 308 310 310 310 310 310 312 312 313 313 313 316 324 322 316 318 326 331 336 338 338 336 334 332 330 330 331 331 330 330 331 331 329 329 331 331 329 328 328 328 331 334 334 334 335 336
306 307 308 310 310 310 310 311 312 313 314 314 318 330 328 324 320 328 334 335 336 336 335 334 335 333 333 332 332 332 332 332 331 331 330 330 333 332 330 328 328 328 330 332 334 336 338
306 306 307 309 310 310 310 310 312 315 314 318 322 334 328 323 325 331 336 335 335 335 334 334 334 335 335 334 333 331 332 332 331 331 331 330 331 333 332 332 330 328 328 329 330 332 335
305 306 305 308 310 310 310 310 312 315 315 322 330 335 329 324 328 331 334 334 329 335 332 332 333 335 337 336 334 334 331 333 332 331 331 331 330 332 333 334 332 331 333 331 330 336 334
305 306 306 306 309 310 310 309 311 314 316 315 332 335 330 326 329 329 330 332 334 333 333 332 332 333 334 336 337 336 334 336 334 333 336 335 333 331 332 333 333 332 332 332 332 333 336
304 305 306 306 306 309 310 309 310 313 317 316 331 331 331 329 330 333 336 334 333 329 329 330 332 333 333 335 335 337 337 336 335 334 343 335 334 335 334 334 335 337 334 335 334 333 333
305 304 305 306 305 307 310 310 310 314 319 320 330 332 333 334 330 330 333 332 333 331 329 329 330 330 332 334 335 336 336 336 336 340 334 334 336 335 334 334 335 336 336 337 336 334 334
305 305 305 305 306 306 309 310 309 314 321 324 328 329 329 331 332 331 326 331 332 330 331 330 329 330 330 331 335 338 339 338 339 337 337 336 339 336 337 336 337 338 338 337 336 336 336
304 304 305 305 306 306 307 310 309 310 319 324 322 325 326 325 326 327 328 329 330 329 328 327 329 329 330 331 330 331 332 333 335 337 338 339 340 341 341 338 337 338 336 336 337 336 335
304 304 304 306 306 306 306 309 309 309 309 317 321 323 327 325 323 325 324 326 327 326 326 325 324 325 328 327 326 326 325 325 327 329 329 331 334 335 338 336 339 335 334 333 331 331 334
303 303 304 305 305 306 306 307 310 309 309 315 321 323 328 331 324 324 323 321 321 322 322 321 321 324 325 323 320 320 320 322 323 323 323 324 327 329 332 333 332 330 329 329 329 330 338
304 303 303 304 304 305 306 305 309 309 309 315 321 320 325 329 327 325 324 323 325 325 326 324 324 324 323 323 323 324 325 326 326 326 326 324 328 327 327 327 329 328 328 332 331 333 337
303 303 302 303 303 304 305 305 307 309 309 313 320 319 323 326 324 325 325 328 324 325 326 328 327 325 324 325 325 325 325 325 326 326 326 329 330 328 327 327 326 329 331 331 333 338 335
302 301 302 303 303 304 305 305 306 309 308 311 320 319 320 326 324 321 321 325 325 322 325 329 328 325 325 326 326 327 327 327 328 328 329 329 330 330 331 331 330 333 334 338 336 333 331
302 301 302 303 303 304 305 305 306 308 309 309 319 318 319 322 326 321 319 320 322 323 326 324 326 332 330 332 330 330 330 329 329 330 327 329 329 329 331 333 332 330 333 331 330 330 329
Wind_Speed
19 20 21 22 22 22 22 21 20 19 18 17 17 17 17 15 13 11 6 4 4 3 4 4 5 6 5 8 5 8 10 9 9 9 18 14 27 17 4 3 6 10 12 16 12 13 13
20 21 22 23 24 24 24 22 21 20 19 18 17 17 17 15 13 11 5 4 3 3 4 3 4 6 5 11 5 11 10 11 12 14 17 14 10 10 12 5 8 7 12 15 16 8 7
20 21 22 23 25 26 26 24 22 21 20 19 18 17 16 15 12 11 5 3 2 2 3 3 3 3 9 11 2 9 12 13 12 11 17 6 10 13 12 9 11 4 7 11 14 11 6
21 21 22 23 25 27 27 25 23 22 21 20 19 17 16 14 12 9 4 3 3 3 3 5 4 3 7 5 5 9 13 14 14 12 15 14 10 5 11 5 15 15 14 9 6 9 9
21 21 22 24 26 28 29 27 25 23 22 20 19 17 16 14 12 6 3 3 3 4 4 5 5 8 11 5 10 13 15 14 12 13 14 14 10 8 11 13 9 3 13 14 18 7 15
20 21 22 23 25 27 29 29 27 25 23 21 19 17 16 13 12 4 4 3 4 4 5 6 14 8 13 11 10 10 14 13 11 10 12 14 13 7 9 11 6 7 7 7 8 2 10
20 21 22 24 25 27 29 30 29 27 24 22 19 17 15 12 10 4 4 3 4 5 12 11 14 11 7 6 8 9 13 11 12 12 12 14 11 7 12 17 16 9 2 1 10 10 9
21 21 22 25 27 28 30 31 31 30 27 23 19 18 15 11 9 6 9 7 6 8 6 21 16 18 2 8 10 12 14 11 12 13 15 14 12 10 21 23 13 11 6 5 5 2 5
21 22 23 26 28 29 31 32 33 32 30 25 21 18 15 10 8 8 14 17 8 9 7 15 16 12 13 10 13 13 14 14 14 14 16 19 4 5 2 8 9 14 7 7 8 10 6
23 23 23 25 29 31 33 34 35 35 31 27 23 19 14 9 5 9 16 15 8 7 6 14 17 12 16 12 14 12 17 14 11 13 15 12 6 4 8 9 8 4 7 4 9 4 8
23 23 23 26 29 32 34 36 38 38 34 29 25 21 12 8 12 8 4 2 7 4 5 14 16 11 12 14 7 11 11 14 14 12 8 13 7 9 7 11 10 10 6 11 11 10 16
26 24 22 26 29 32 35 38 40 40 36 30 27 20 8 5 9 14 8 5 6 6 6 10 10 12 16 17 8 9 9 12 8 14 13 16 13 6 11 9 7 8 7 12 14 14 9
26 25 24 25 28 32 34 38 41 43 37 31 26 14 10 9 7 11 9 8 6 9 11 12 16 15 16 15 15 10 11 12 12 10 14 16 16 15 8 11 7 9 13 10 10 9 5
24 26 25 25 28 32 35 38 41 45 39 33 16 8 6 20 7 7 9 7 8 13 9 7 12 15 15 16 16 12 13 13 16 17 14 12 12 21 15 11 10 11 13 8 11 9 2
24 26 25 25 28 32 35 39 43 45 38 33 8 8 9 12 15 10 7 10 10 8 13 2 9 14 16 16 8 14 14 14 14 15 14 10 6 11 11 11 11 12 9 13 12 11 8
27 26 26 26 28 31 35 39 44 46 35 25 7 11 12 10 14 11 8 16 17 8 8 8 11 9 12 15 13 10 12 11 14 13 11 9 6 7 8 2 11 13 12 9 7 4 7
27 28 28 27 28 30 34 38 43 46 34 14 5 5 10 11 13 7 11 16 18 4 5 8 13 16 9 12 16 13 9 10 8 8 8 11 10 3 9 8 12 8 10 11 13 10 10
26 28 28 28 28 30 33 37 41 42 39 10 9 5 12 13 8 9 12 18 12 4 4 7 8 13 15 10 15 12 15 8 11 5 5 11 13 12 14 11 14 14 12 12 9 12 7
25 27 29 29 28 29 32 36 37 39 39 13 5 6 10 13 8 11 17 18 3 7 6 10 7 8 10 10 8 12 8 10 5 4 4 9 7 11 13 13 14 13 12 11 14 12 11
25 27 28 29 29 28 31 35 37 36 36 4 5 4 5 7 11 14 12 14 11 5 10 6 11 10 6 10 12 6 11 10 6 3 8 2 14 15 12 13 16 10 11 8 14 11 12
24 26 28 29 29 28 29 33 37 38 26 2 4 4 5 1 9 13 14 10 10 9 7 1 8 11 11 12 12 13 13 12 8 9 4 6 15 16 17 21 20 19 16 10 11 11 12
23 25 27 28 29 29 28 30 35 38 24 5 6 5 9 11 4 7 2 8 9 1 3 6 5 14 3 4 10 14 12 6 13 10 8 8 14 14 19 18 21 22 19 18 15 18 16
23 24 25 27 28 29 28 27 30 35 26 8 14 11 6 6 7 8 5 3 4 6 4 5 9 9 6 11 12 12 10 11 12 9 7 10 10 11 16 16 16 20 15 16 20 21 20
22 23 24 26 27 29 28 25 25 26 27 10 14 13 6 10 5 5 4 5 2 7 9 4 4 7 9 11 12 12 13 15 14 14 12 12 11 10 13 13 20 15 18 17 12 14 14
22 22 23 24 25 27 27 24 22 24 22 15 12 9 5 8 6 2 3 4 2 1 6 10 5 6 9 10 7 9 10 13 15 15 15 14 12 12 12 14 18 18 17 14 11 8 14
20 21 21 22 24 25 26 25 21 21 24 16 12 12 7 6 9 9 8 3 9 7 7 6 4 6 8 7 7 8 7 7 4 8 11 12 12 10 12 15 17 10 13 7 6 8 12
19 20 20 22 22 24 25 25 22 19 21 19 7 15 10 8 9 7 6 9 7 7 4 4 1 4 3 5 7 9 10 11 11 11 7 7 7 10 11 13 15 12 12 6 8 3 9
19 18 19 20 20 22 24 25 22 18 19 21 10 12 11 6 7 5 6 7 4 4 7 7 5 6 5 4 5 7 6 6 4 7 7 7 8 9 9 14 13 17 10 6 6 5 7
18 16 18 19 19 20 22 23 20 19 15 15 10 13 11 6 6 4 5 3 4 7 6 3 5 2 6 4 4 4 6 5 6 8 5 6 8 8 6 6 2 11 10 6 9 10 12
Wind_Direction
27 27 24 23 22 18 15 12 8 5 3 359 355 352 353 353 349 348 335 322 293 268 263 256 276 300 310 234 246 158 177 188 198 226 252 274 140 196 113 130 237 286 100 100 95 84 115
24 26 22 22 19 16 12 8 5 2 360 356 354 350 350 349 346 342 323 301 284 272 255 248 281 304 259 258 96 167 180 193 220 223 259 267 348 301 123 176 176 152 109 121 98 123 116
27 26 23 21 18 13 10 6 4 1 358 355 353 349 346 345 344 336 309 286 269 251 256 245 265 301 261 269 238 187 199 212 231 255 284 326 329 28 67 282 253 100 141 134 135 167 112
28 25 23 21 17 13 9 7 3 360 356 353 350 348 343 341 342 331 291 263 243 233 232 256 261 251 268 193 228 210 211 227 246 259 271 297 308 287 155 282 327 44 22 352 250 137 117
28 23 22 19 14 11 10 8 3 358 353 349 348 345 342 339 338 323 264 239 227 228 230 244 255 219 253 175 214 220 215 229 236 254 260 274 283 348 50 42 1 46 167 222 261 159 145
25 21 20 15 11 10 8 7 3 358 351 346 344 342 341 336 337 294 223 240 260 233 228 246 267 250 224 220 198 197 207 229 270 249 251 249 257 124 98 108 239 255 236 124 209 219 196
20 17 15 11 8 7 6 6 3 359 352 346 341 338 338 332 332 259 195 250 214 199 227 212 184 232 148 137 143 220 204 208 251 260 258 247 273 156 145 210 210 233 131 17 145 179 237
16 13 11 8 6 5 4 3 3 360 354 347 340 336 333 322 317 241 225 250 354 335 234 229 271 217 286 178 197 213 195 214 221 243 229 247 242 175 172 208 250 283 208 48 159 245 302
12 8 6 6 5 4 3 2 1 358 354 347 338 332 326 312 301 236 227 267 325 321 268 198 210 219 207 208 234 197 195 214 236 225 260 263 270 340 253 260 239 266 113 172 229 188 194
7 5 3 4 4 4 3 2 1 357 352 345 337 329 320 304 280 230 229 247 267 300 276 178 200 223 195 211 229 221 192 225 231 264 260 287 236 92 291 245 295 332 0 284 280 221 247
2 1 1 2 3 2 2 2 359 355 350 344 336 323 306 264 305 262 41 234 305 255 269 129 173 205 172 205 144 192 181 224 253 229 270 265 232 260 240 266 295 305 38 307 313 276 269
2 358 360 1 1 0 0 359 357 353 349 342 334 317 287 254 251 251 312 274 245 235 242 158 142 187 193 212 192 135 206 228 247 261 270 262 300 305 290 248 273 291 299 253 242 248 272
360 358 359 358 359 359 359 359 355 352 348 341 331 305 239 224 225 218 243 246 222 248 141 151 171 193 206 194 224 173 194 202 222 217 243 240 248 250 217 270 244 240 258 259 229 238 169
359 356 356 355 356 357 358 357 355 351 348 339 322 287 266 228 259 257 232 226 253 258 200 116 167 186 206 202 215 185 203 217 218 241 280 243 232 206 210 222 255 212 260 294 309 333 190
358 355 354 353 354 356 357 356 355 350 348 338 302 256 225 229 220 242 231 224 236 297 3 151 174 187 204 221 215 196 214 224 225 211 256 297 253 124 194 198 225 259 269 289 313 303 275
359 357 353 353 354 355 357 356 355 349 349 336 314 259 208 162 187 216 229 242 260 349 350 328 279 211 234 206 187 226 205 225 235 203 215 282 287 185 188 227 263 263 279 280 213 262 273
357 358 356 354 354 355 357 358 357 350 349 337 255 241 122 166 184 219 228 239 247 161 18 272 277 288 260 264 196 227 216 207 222 198 214 245 250 234 137 215 247 192 237 251 285 303 306
358 357 357 355 354 354 357 358 360 359 354 3 292 266 136 169 199 226 234 243 278 314 144 263 278 292 306 301 279 216 247 333 168 208 253 244 270 252 231 213 209 258 269 199 224 227 266
358 358 357 356 355 355 357 357 358 1 6 333 278 278 154 200 225 227 222 247 209 289 250 264 250 258 298 288 310 311 301 86 76 216 32 345 251 249 256 264 209 216 239 259 284 292 285
358 357 357 357 356 356 357 357 355 355 356 325 279 253 152 210 259 291 288 230 243 162 291 321 296 330 295 267 269 270 290 152 125 64 11 327 270 289 282 296 337 315 203 240 268 259 250
357 357 357 357 357 357 358 360 356 352 349 220 246 307 12 255 218 254 269 314 244 187 195 341 274 252 267 276 262 253 236 262 157 146 220 253 257 277 285 293 301 303 300 280 241 262 269
357 357 357 357 357 358 359 2 3 358 351 221 336 351 344 288 292 323 317 255 276 249 135 294 228 293 328 287 330 343 360 3 315 141 207 240 260 266 275 283 290 289 289 287 281 282 287
354 357 357 358 358 358 359 3 9 6 16 351 360 320 284 293 262 253 289 238 202 343 76 323 336 340 276 20 337 329 323 315 317 331 317 302 313 310 281 289 291 271 265 267 270 274 269
352 356 358 357 358 358 358 2 6 10 10 330 350 315 276 273 245 15 13 0 272 38 318 29 23 302 30 327 309 289 285 279 272 272 274 271 263 275 279 287 264 277 295 303 313 307 325
349 354 357 356 357 357 356 359 2 4 0 345 339 344 318 305 344 348 252 296 44 261 263 263 318 21 333 299 291 259 250 247 258 258 247 251 261 266 263 254 267 276 286 307 314 300 25
347 350 354 355 358 357 355 357 358 2 358 353 352 356 310 291 48 357 320 354 281 222 164 230 71 321 300 270 252 251 262 297 222 207 218 240 239 250 261 270 270 294 359 34 341 239 38
344 346 354 355 356 356 355 353 357 1 356 349 310 358 302 288 54 344 359 349 350 309 304 138 86 253 241 261 256 256 252 240 256 263 242 205 229 260 255 254 261 326 356 13 268 27 23
342 345 351 350 352 353 351 350 354 358 359 357 308 8 357 316 64 360 6 348 331 282 308 47 252 193 248 258 270 268 265 286 316 321 333 306 297 277 258 254 256 14 357 0 41 35 15
340 344 348 349 348 350 348 348 351 350 358 356 313 354 338 270 4 325 335 332 326 346 330 333 356 314 11 308 13 320 309 322 294 282 289 263 269 296 318 340 343 12 45 27 351 346 348